Location: Unspecified
(0.0000°N, 0.0000°E)
Time: 21:15:27
(UTC+00:00)

Envisat - Pass Details

Date: 08 August 2021
Orbit: 764 x 766 km, 98.2° (Epoch: 16 September)

Event Time Altitude Azimuth Distance (km) Brightness Sun altitude
Rises 03:56:32 0° 42° (NE) 3,215 7.1 -30.9°
Reaches altitude 10° 03:59:32 10° 60° (ENE) 2,292 6.3 -30.2°
Maximum altitude 04:02:54 18° 102° (ESE) 1,801 5.5 -29.4°
Drops below altitude 10° 04:06:16 10° 145° (SE) 2,298 5.6 -28.6°
Sets 04:09:16 0° 163° (SSE) 3,227 6.2 -27.9°
